map of TGI home
Great Circle Mapper logo
TGI - Airport
Location
City:  Tingo Maria, Perú
ICAO / IATA:SPGM / TGI

Details
Type:Airport (Aerodrome, Airfield)
Latitude:9°17'21"S (-9.289166)
Longitude:76°00'18"W (-76.004999)
Elevation:2010 ft (613 m)
Runways:1
Longest:6890 × 98 ft (2100 × 30 m)

Time
Time Zone:UTC-5
Local Time:

Weather
METAR:SPGM 241500Z /////KT 9999 FEW040 28/21 Q1015 RMK BIRD HAZARD RWY 19 PP000
TAF:SPGM 241030Z 2412/2512 04004KT 9999 FEW040 SCT130 TX33/2419Z TN20/2511Z
TEMPO 2412/2414 4000 BR SCT012 BKN070
BECMG 2415/2417 SCT040 BKN120

Related Locations
Nearby:
Farthest:PQC: 12369 mi / 19906 km
Phú Quóc [Intl], VN

Find:

   beyond  
but within

Other Information
Maps:
NOTAMs:
Links:
Sources:

  
flag of Perú   

Sectional Chart

Flight Planning
at skyvector.com

Satellite Image

Google Maps Satellite View

 

Copyright © 2004-2014 Karl L. Swartz. All rights reserved.
The Great Circle Mapper name and logo are trademarks of the Great Circle Mapper.
All other trademarks mentioned herein belong to their respective owners.
Please see credits for attibutions and further copyright information.

  Follow gcmap on Facebook Follow gcmap on Twitter

hCard Microformat

Geo Microformat